IRIDIUM 33 DEB, 34492

Orbit data source: Space-Track

IRIDIUM 33 DEB, 34492 is space debris in LEO originally from a launch on Sun, 14 Sep 1997 UTC launched from the Tyuratam Missile And Space Complex (TTMTR). The debris from Iridium 33, an American commercial communications satellite, has been tracked extensively since its accidental collision with the defunct Russian satellite Cosmos 2251 in 2009. This event, occurring at high speed in low Earth orbit (LEO), generated thousands of pieces of space debris, significantly increasing the risk of further collisions. The Iridium 33 debris cloud has impacted space traffic management and orbital debris mitigation strategies, making it a subject of ongoing study in space situational awareness.

Loading next visibility...
Identifier
34492, 1997-051GH
Orbit
LEO
Country
Flag of USUS
Related business
Manufacturer
Unknown
Mission
Spacecraft
Bus & Motor
Unknown
Mass
Unknown
Launch date (UTC)
1997-09-14 (29 years ago)
Launch vehicle
Unknown
Launch site
Tyuratam Missile And Space Complex (TTMTR)
Object type
Payload
Rocket body
Debris
Shape & HBR
Unknown shape, 0.1 m
Radar Cross Section
Small (<0.1 m²)

Expand to show TLE details & history
Last TLE update: 19 hours ago

TLE from 19 hours ago
0 IRIDIUM 33 DEB
1 34492U 97051GH  26119.90068939  .00015818  00000-0  52154-2 0  9999
2 34492  86.4696 278.6423 0185279 152.8059 359.1534 14.28715355870294
Epoch: 2026-04-29T21:36Z
TLE epoch observation values (Epoch: 2026-04-29T21:36:59.563Z)
Latitude
28.05818°
Longitude
-85.33514°
Altitude
666.666 km
Speed
7.596 km/s
True Right ascension
06h 27m 04s
True Declination
27° 54' 50"
Sunlit
Object was in daylight at epoch
Visualization orbit readout
Latitude
Unknown
Longitude
Unknown
Altitude
Unknown
Speed
Unknown
Apparent Right ascension
Unknown
Apparent Declination
Unknown
Sunlit
N/A
Visualization observer readout
Local Sidereal Time
00:02:40
Azimuth
Unknown
Elevation
Unknown
Doppler factor
Unknown
Orbital elements
Apogee altitude
925.863 km
Perigee altitude
660.131 km
Semi-major axis
7,171.134 km
Eccentricity
0.01853
Inclination
86.4696°
RAAN
278.6423°
Arg. of periapsis
152.8059°
True anomaly
359.12129°
Mean anomaly
359.1534°
Eccentric anomaly
359.13742°
Mean motion
3.57406 °/min
Orbital period
100.73 mins
BSTAR
0.0052154
Loading maneuver chart data...
Computing Atmospheric mass density...
Loading historical data...
Loading historical data...
Loading historical data...
Loading historical data...
Loading historical data...
Loading historical data...
Loading historical data...

Documentation

Showing up to 5 results
|